Other Public Products
Issued by NWS Charleston, SC

Home | Current Version | Previous Version | Text Only | Print | Product List | Glossary On
Versions: 1 2 3 4 5 6 7 8 9 10 11 12 13 14 15 16 17 18 19 20 21 22 23 24 25 26 27 28 29 30 31 32 33 34 35 36 37 38 39 40 41 42 43 44 45 46 47 48 49 50
819
FPUS82 KCHS 212112
OPUCHS

TEST...KCHS/KSAV Gateway Observations...TEST
National Weather Service Charleston SC
400 PM EST SAT JAN 21 2017

NOTE: "fair" indicates few or no clouds below 12,000 feet with no
significant weather and/or obstructions to visibility.

SCZ050-WAZ558-NCZ071-TXZ119-213-PAZ071-DCZ001-FLZ074-172-MI076-
NYZ176-178-MAZ016-IL014-TNZ027-NJZ106-GAZ044-MD014-212200-
...Gateway Observations for Charleston International...

CITY           SKY/WX    TMP DP  RH WIND       PRES   REMARKS
Chas Airport   CLOUDY    67  64  90 S15       29.74S
Seattle        PTSUNNY   51  34  52 CALM      29.40R
Charlotte      RAIN      55  54  96 N9        29.74F VSB 1
Dallas DFW     PTSUNNY   71  56  58 S10       29.37F
Dallas Love    CLOUDY    69  58  67 S12       29.39F
Philladelphia  CLOUDY    46  45  93 SW5       29.85R FOG
Wash National  CLOUDY    49  48  97 S7        29.83F
Baltimore      FOG       47  47 100 E7        29.82S VSB 3/4
Miami          MOSUNNY   82  64  54 SE10G23   29.89S
Detroit        PTSUNNY   57  52  83 SE6       29.61S
Newark         CLOUDY    47  44  90 SW8       29.82R
Laguardia      MOCLDY    49  43  80 SW7       29.81S
J F K          CLOUDY    46  46 100 SW8       29.83S FOG
Boston Logan   MOCLDY    55  43  63 W13       29.72S
Ft. Lauderdale MOSUNNY   81  63  54 S17G24    29.87F
Chicago O`Hare MOSUNNY   58  44  60 SW13      29.46R
Chicago Midway MOSUNNY   60  46  59 S16G24    29.47R
Houston Bush   MOSUNNY   77  58  51 SW7       29.44F
Houston Hobby  MOSUNNY   79  55  43 W14       29.44F
Nashville      MOSUNNY   68  48  48 S9        29.62F
Atlanta        CLOUDY    62  57  83 CALM      29.65R

$$

GAZ044-118-TXZ119-213-NCZ071-DCZ001-MDZ014-506-PAZ021-071-NJZ106-
NYZ176-178-MAZ106-OHZ011-021-055-MIZ076-KYZ091-ILZ014-INZ047-
MNZ060-212200-
...Gateway Observations for Savannah International...

CITY           SKY/WX    TMP DP  RH WIND       PRES   REMARKS
Savannah Arpt  RAIN      65  57  75 NW15G40   29.77R SQUALL  VSB 1
Atlanta        CLOUDY    62  57  83 CALM      29.65R
Charlotte      RAIN      55  54  96 N9        29.74F VSB 1
Dallas DFW     PTSUNNY   71  56  58 S10       29.37F
Houston Bush   MOSUNNY   77  58  51 SW7       29.44F
Wash National  CLOUDY    49  48  97 S7        29.83F
Wash Dulles    FOG       49  47  93 SE5       29.80F VSB 1/2
Baltimore      FOG       47  47 100 E7        29.82S VSB 3/4
Philadelphia   CLOUDY    46  45  93 SW5       29.85R FOG
Newark         CLOUDY    47  44  90 SW8       29.82R
Laguardia      MOCLDY    49  43  80 SW7       29.81S
J F K          CLOUDY    46  46 100 SW8       29.83S FOG
Boston         MOCLDY    55  43  63 W13       29.72S
Pittsburg      CLOUDY    63  51  65 SW10      29.68F
Akron          CLOUDY    59  50  72 S7        29.67F
Cleveland      CLOUDY    61  50  67 S9        29.67F
Cincinnati     CLOUDY    65  54  67 S12       29.62S
Columbus         N/A     58  52  79 S5        29.66R
Detroit        PTSUNNY   57  52  83 SE6       29.61S
Chicago O`Hare MOSUNNY   58  44  60 SW13      29.46R
Minneapolis    CLOUDY    38  35  89 NE3       29.40S
Indianapolis   MOSUNNY   66  52  60 SW13      29.56R

$$




USA.gov is the U.S. government's official web portal to all federal, state and local government web resources and services.